Location: Winterland
(47.1574°N, 55.3067°W)
Time: 14:22:22
(UTC+00:00)

Tiangong - Pass Details

Date: 17 August 2022
Orbit: 377 x 382 km, 41.5° (Epoch: 27 September)

Event Time Altitude Azimuth Distance (km) Brightness Sun altitude
Rises 23:53:50 0° 232° (SW) 2,232 2.0 -10.7°
Reaches altitude 10° 23:56:13 10° 215° (SW) 1,381 0.7 -11.0°
Maximum altitude 23:58:36 20° 165° (SSE) 927 -0.6 -11.4°
Enters shadow 23:59:24 19° 143° (SE) 986 -0.7 -11.5°
